Theta_e
306 307 307 307 307 307 307 307 307 307 307 307 307 308 308 308 308 308 308 308 309 309 309 309 309 308 306 306 304 302 301 302 304 308 312 313 304 308 310 312 316 316 311 310 312 312 312 313 313 314 317 319 320 320 318 317 315 313 316 316 314 314 313 317 317 314 315 317 318 318 318 319 316 318 317 324 341 353 352 352 352 351 350 348 348 346 344 343
306 306 307 307 307 307 307 307 307 307 307 307 307 307 308 308 308 308 308 308 308 309 309 308 308 307 304 303 302 301 301 303 308 312 314 306 304 308 310 314 316 316 312 312 313 312 313 315 314 314 318 321 320 318 317 317 314 314 318 316 314 315 315 316 316 315 315 316 318 318 317 318 315 317 317 321 338 354 357 353 352 352 349 345 345 343 343 343
306 306 306 306 306 306 307 307 307 307 307 307 307 307 307 308 308 308 308 308 308 308 308 308 307 304 302 301 301 300 302 307 314 317 310 305 307 304 308 315 317 316 314 313 311 311 313 313 313 315 318 321 320 317 316 316 314 314 316 315 315 314 314 315 315 315 317 316 318 318 316 317 316 316 319 329 342 353 358 357 354 354 352 347 344 343 343 343
306 306 306 306 306 306 306 307 307 307 307 307 307 307 307 307 308 308 308 308 307 308 308 308 306 302 300 300 300 300 305 313 318 313 310 311 310 306 306 311 317 317 316 315 310 310 313 312 312 315 317 320 320 316 315 316 314 314 314 314 315 314 314 316 315 316 317 317 318 318 317 316 317 316 318 328 344 352 352 356 355 353 351 347 344 343 344 343
305 306 306 305 306 306 306 306 307 306 306 307 307 307 307 307 308 307 308 307 307 307 307 307 305 302 299 299 299 301 307 315 315 315 317 316 312 309 306 309 317 318 316 314 310 310 313 313 313 315 317 319 318 316 316 316 313 314 313 313 315 314 315 315 315 316 317 318 318 318 316 315 316 318 317 317 336 352 350 350 352 350 348 346 345 345 344 344
305 305 305 305 306 306 306 306 306 306 306 306 306 307 307 307 307 307 307 307 308 307 306 306 305 301 298 298 301 305 309 310 311 316 316 315 312 308 305 310 316 316 313 312 310 311 313 314 315 316 317 318 317 317 317 315 312 313 313 313 315 314 314 314 314 317 318 318 318 317 315 316 317 317 319 314 321 340 347 348 350 348 348 347 346 346 346 346
305 305 305 305 305 305 306 306 306 306 306 306 306 306 306 306 307 307 307 307 307 307 307 306 304 301 297 300 307 311 314 313 309 311 314 314 313 310 309 312 315 313 311 310 309 311 314 316 317 317 317 317 318 316 316 315 313 313 313 313 314 313 314 313 314 316 319 319 318 317 315 316 316 316 318 315 321 338 346 348 348 348 348 348 348 348 347 347
304 304 305 305 305 305 305 305 306 306 306 306 306 306 306 306 306 306 306 307 307 307 307 306 304 301 297 303 312 316 317 316 307 307 310 313 314 314 314 313 313 311 310 310 309 311 314 318 319 317 316 317 317 316 315 314 314 313 312 313 313 314 314 314 315 316 318 319 318 317 316 317 317 317 315 317 334 346 346 347 347 347 349 349 350 350 348 348
304 304 304 305 305 304 305 305 306 306 305 306 306 306 306 306 306 305 306 306 306 307 307 306 304 301 300 307 314 314 313 312 307 309 310 312 313 311 311 311 311 312 311 310 309 311 316 321 321 318 317 317 316 316 315 314 316 315 312 313 313 314 315 314 315 315 317 317 317 316 315 318 317 316 314 319 340 347 344 347 348 348 349 349 351 350 349 349
304 304 304 305 304 304 305 305 305 305 305 305 306 306 306 306 305 305 305 306 306 306 307 306 304 301 302 310 315 312 310 311 312 315 313 312 311 308 309 310 311 311 311 311 311 313 316 320 321 317 316 317 317 316 315 314 315 315 313 313 313 314 315 315 315 316 317 316 316 316 315 318 315 315 315 316 334 345 346 348 348 349 351 350 351 351 350 350
304 304 304 304 304 304 304 305 305 304 305 305 305 305 305 305 305 305 305 305 305 305 306 306 305 303 305 312 317 312 310 316 317 317 316 312 311 310 309 310 312 310 310 313 313 314 316 318 319 316 316 316 316 316 316 315 313 313 313 313 314 315 314 314 315 316 316 315 317 317 316 318 315 314 316 314 331 345 347 349 349 350 352 351 351 351 352 350
304 304 304 304 304 304 304 304 304 304 304 305 305 305 305 305 305 304 304 303 303 305 306 307 307 306 309 312 315 311 306 316 318 315 314 312 311 311 309 310 312 310 309 312 313 315 317 318 317 315 315 314 314 314 314 313 312 313 313 312 314 315 315 315 316 316 316 315 317 317 315 317 315 315 316 316 332 346 346 349 350 350 353 352 353 352 353 351
303 303 304 304 304 304 304 304 304 304 304 304 304 304 305 304 304 304 302 300 302 305 306 308 307 306 311 314 311 306 304 311 312 310 310 313 315 313 311 312 313 310 308 311 314 316 317 318 315 313 314 312 312 312 312 312 312 314 313 312 313 314 314 314 315 315 316 316 317 316 312 315 316 316 316 314 329 345 347 350 350 350 353 352 352 352 352 351
303 303 303 304 304 304 304 304 304 304 304 304 304 304 304 303 303 301 300 300 303 306 307 308 308 308 314 316 306 302 304 304 306 307 309 316 319 315 312 314 314 311 308 311 315 316 317 316 313 312 313 313 313 312 313 313 313 314 313 315 314 312 313 314 315 315 315 316 317 315 311 313 315 315 316 312 327 345 346 349 349 349 352 351 352 351 351 350
303 303 303 303 304 303 304 304 304 304 304 304 304 304 304 302 300 299 300 302 304 306 307 307 307 310 316 313 305 304 307 310 311 309 309 318 320 315 314 314 315 312 309 310 313 315 316 315 313 313 313 313 312 313 314 313 316 316 312 318 317 310 312 313 315 316 314 314 315 315 312 313 314 315 315 313 328 344 344 348 349 349 352 350 351 349 349 349
303 303 303 303 303 303 303 303 303 303 303 304 304 304 302 300 298 300 303 305 305 306 306 308 308 311 316 311 306 309 310 315 316 310 311 317 317 314 314 314 314 313 311 311 313 314 315 314 314 314 313 313 313 313 314 314 320 321 315 318 317 310 311 312 315 316 313 315 314 314 313 314 316 317 316 314 327 341 342 346 348 349 351 349 349 347 348 349
303 303 303 303 303 303 303 303 303 303 303 304 303 302 299 297 299 302 306 306 306 305 306 309 308 310 316 310 309 315 312 313 314 310 312 315 315 314 314 314 313 311 311 312 313 314 315 314 314 317 315 313 314 313 314 313 317 322 316 315 316 312 312 312 314 315 313 314 314 314 314 315 317 318 316 312 324 339 341 343 346 347 349 348 347 347 348 350
303 303 303 303 303 303 303 303 303 303 303 303 303 300 298 299 302 305 307 307 307 307 308 310 310 314 318 313 313 316 313 312 312 312 314 315 315 314 314 315 314 313 313 313 315 315 315 315 315 319 317 313 314 313 315 315 314 318 316 315 316 313 313 312 313 314 313 313 314 314 313 314 316 317 318 314 322 337 341 341 344 345 347 347 346 347 348 349
302 302 302 302 302 302 303 302 303 303 303 303 302 299 302 306 308 310 308 309 312 312 312 313 313 317 316 313 313 313 313 313 312 311 313 316 316 315 315 315 314 315 315 316 317 316 316 315 314 316 315 314 314 312 314 315 312 315 316 316 315 312 313 313 313 314 313 312 314 315 312 314 316 316 321 320 325 337 341 341 344 344 344 345 346 346 347 349
302 302 302 302 302 302 302 303 303 303 302 303 301 301 311 317 317 317 312 311 313 314 313 313 312 314 312 310 311 312 313 313 311 309 311 315 314 314 314 314 314 315 317 318 319 317 316 316 315 315 315 315 316 315 314 313 312 313 313 314 313 312 313 314 316 316 313 313 313 315 315 315 318 321 326 325 328 338 342 343 344 343 343 344 345 346 347 348
302 302 302 302 302 302 303 302 302 303 303 303 301 304 314 317 315 317 315 312 312 312 312 311 310 312 311 310 310 311 312 311 310 308 309 312 314 315 315 314 315 315 316 317 317 317 315 316 317 316 315 316 318 319 319 316 315 314 313 313 312 312 313 314 317 315 316 318 313 315 317 316 322 326 326 322 323 333 339 343 343 341 342 342 345 347 346 344
301 302 302 302 302 302 302 302 302 303 302 302 301 302 307 308 307 309 309 310 311 311 312 310 310 311 310 311 311 311 312 311 310 308 309 311 313 315 315 314 315 315 315 315 316 316 315 316 316 314 314 315 317 319 319 318 318 316 315 314 313 314 313 317 322 317 317 321 317 318 315 318 331 333 327 323 319 328 335 341 342 340 342 341 342 346 344 342
301 301 301 302 302 302 302 302 302 302 301 302 301 301 304 302 302 303 305 309 310 311 313 312 312 311 311 312 312 313 313 312 311 309 309 312 314 314 314 314 314 314 314 315 317 318 317 316 314 313 313 315 316 317 316 316 317 319 317 314 313 314 312 316 323 318 316 321 321 321 320 330 343 336 331 326 321 323 326 335 339 336 340 341 340 343 343 343
301 301 301 302 302 302 302 301 301 302 304 303 302 304 304 304 304 302 306 312 311 310 312 313 313 312 312 313 313 314 314 313 312 309 309 312 312 312 312 313 313 313 315 315 317 317 316 314 313 313 313 314 316 316 316 315 316 319 320 315 312 315 316 317 320 320 323 325 328 328 327 341 345 329 328 327 322 320 321 332 340 336 337 338 337 340 340 341
301 301 301 301 302 302 301 300 302 304 304 303 305 306 306 308 308 305 308 316 317 313 309 310 312 312 312 313 314 314 312 313 313 310 310 311 311 311 311 312 312 313 314 314 315 316 315 314 314 313 313 313 313 314 316 316 316 317 321 319 315 318 321 320 319 321 322 321 326 324 319 332 342 330 328 328 324 321 320 327 335 336 337 336 336 338 336 337
301 301 301 301 302 301 301 302 304 303 303 305 307 306 306 308 310 309 311 320 322 316 308 308 311 311 311 313 314 313 312 313 312 310 310 310 310 311 310 310 311 312 313 313 315 315 315 315 315 314 314 313 312 313 313 316 316 316 322 325 320 320 322 321 318 318 319 319 324 323 316 324 335 333 330 329 328 326 324 327 327 327 333 334 335 336 336 338
300 301 301 301 301 301 302 304 302 301 305 307 306 306 306 307 309 309 314 321 323 316 308 307 309 309 311 313 312 312 313 314 312 310 310 310 310 311 310 310 311 311 311 312 314 315 316 316 316 316 314 313 313 313 312 316 316 319 326 324 319 319 319 320 317 315 320 320 325 329 322 319 323 327 328 328 331 332 331 332 329 328 331 333 334 335 339 343
300 301 301 301 301 301 301 302 300 302 305 306 307 308 308 307 309 312 318 324 324 313 308 307 308 310 310 312 312 311 314 314 312 311 309 310 311 310 310 310 311 311 312 313 314 316 317 317 317 316 315 314 314 314 313 315 316 322 327 319 318 318 315 318 314 315 323 317 320 332 323 314 321 328 328 329 332 333 333 334 333 333 334 335 337 338 340 340
300 301 301 301 301 300 301 301 302 303 304 306 308 309 308 308 311 315 320 326 322 311 310 309 309 310 310 311 311 310 311 311 311 311 310 311 311 311 311 310 312 312 311 313 315 316 315 316 316 314 315 315 314 314 314 315 317 322 323 318 318 315 315 322 317 318 327 319 321 332 322 313 322 331 334 337 335 332 333 334 333 335 334 333 335 336 337 336
300 301 300 301 301 300 301 301 303 304 305 306 308 308 308 312 316 317 318 323 321 312 310 310 309 311 310 310 311 310 310 311 311 311 311 312 312 312 312 312 312 313 315 315 314 314 313 314 316 313 315 316 315 316 314 316 319 318 319 316 315 318 321 330 334 328 324 321 327 332 322 314 316 326 336 338 335 333 334 335 336 336 333 331 332 332 332 332
300 300 300 300 301 301 300 301 302 305 305 305 307 308 312 315 318 321 319 318 318 313 309 310 310 310 310 309 311 310 309 311 310 310 312 313 313 313 313 313 312 315 321 319 314 315 313 312 314 315 317 316 315 317 315 318 320 316 319 315 314 325 325 325 334 329 319 323 331 327 318 315 316 324 333 334 334 336 335 337 338 336 333 331 330 330 329 329
300 300 300 300 301 301 301 301 303 305 304 305 309 312 316 316 315 321 323 317 317 314 310 311 310 310 309 309 311 310 310 312 311 309 311 313 315 314 313 316 317 316 319 321 318 319 318 315 314 314 318 317 315 317 315 316 319 315 320 319 315 321 320 319 326 325 322 325 326 322 315 315 321 327 331 333 336 337 335 336 336 334 333 331 329 329 329 329
300 300 300 300 301 301 301 299 300 301 301 305 311 315 319 317 316 320 321 318 318 314 311 312 311 311 311 310 311 311 311 312 311 310 310 313 315 315 312 314 319 318 321 325 320 317 318 318 315 312 315 317 317 318 315 316 318 314 317 319 318 320 318 319 322 321 322 321 320 321 313 315 328 331 330 332 334 333 332 332 331 331 331 330 329 329 328 329
300 300 300 301 301 302 301 298 299 299 301 307 315 318 317 317 320 322 317 315 315 312 311 312 311 312 312 311 312 312 311 312 311 309 309 312 314 316 314 310 313 317 319 320 318 317 318 320 320 315 313 317 317 318 319 321 319 315 318 318 319 326 326 322 323 321 320 320 323 321 312 321 336 332 328 331 330 329 329 328 329 329 328 328 328 328 328 328
300 300 300 301 303 304 304 302 301 299 302 311 318 319 318 319 323 323 317 313 310 309 310 311 312 313 313 313 312 312 312 312 311 308 308 312 314 316 315 311 311 314 315 317 320 317 313 319 325 318 315 317 316 317 319 320 318 316 318 315 314 324 327 323 326 328 326 323 323 324 323 329 334 329 327 331 329 328 329 328 329 328 327 328 328 329 330 329
300 301 301 302 305 307 308 306 303 301 305 314 319 319 320 320 321 320 316 311 307 307 308 310 312 312 312 313 312 312 312 313 313 310 308 309 311 313 313 311 310 310 314 321 324 317 313 321 326 316 314 317 316 318 318 316 321 320 315 315 316 319 320 320 324 325 322 321 322 330 336 333 331 330 329 330 330 330 329 328 329 329 328 329 329 330 330 329
301 302 302 304 307 310 310 306 303 302 308 316 320 320 319 317 315 315 314 311 308 307 307 311 312 311 312 312 311 312 311 313 314 313 311 310 311 312 310 311 311 310 312 316 319 321 319 321 325 317 312 316 315 317 318 316 322 320 315 316 315 314 317 325 329 322 317 321 325 333 338 336 335 334 329 331 334 332 331 330 329 329 329 329 328 327 327 327
301 301 304 307 308 311 308 303 304 306 311 317 320 319 317 316 314 313 313 310 307 306 307 309 309 310 312 311 312 311 311 314 314 313 314 312 314 315 310 309 311 309 310 311 314 322 319 316 325 324 314 315 316 314 316 316 316 317 317 318 317 319 322 323 324 320 317 322 323 325 332 335 336 334 331 334 336 333 332 330 329 329 328 327 326 325 324 324
301 304 310 311 310 310 306 304 307 309 313 317 319 319 316 314 313 313 311 308 306 308 309 309 309 311 312 311 312 311 312 314 313 315 316 313 316 320 315 313 314 311 310 311 311 319 320 318 325 328 318 315 315 316 319 317 315 314 314 315 319 326 327 319 318 319 319 324 323 323 331 335 333 331 331 333 333 332 332 330 328 328 326 325 324 322 322 321
302 308 315 314 310 308 305 307 310 311 314 317 318 316 312 310 310 310 310 308 307 309 309 309 311 313 313 312 311 310 312 314 313 317 322 319 319 321 319 317 318 318 314 309 310 315 317 316 323 329 322 316 316 317 320 320 317 315 314 314 314 318 320 318 320 320 318 325 328 326 331 333 330 329 330 330 331 330 330 328 326 325 323 322 321 319 319 318
305 312 316 312 308 306 307 309 311 312 313 314 313 309 307 308 309 309 309 308 307 308 309 309 311 312 312 311 311 309 311 313 313 317 324 325 321 320 320 318 318 322 323 320 320 318 316 317 322 325 320 320 321 318 316 318 316 315 317 317 313 314 317 317 321 324 320 324 329 330 331 330 328 328 329 328 328 327 326 325 324 323 321 319 318 317 317 316
309 315 315 310 308 307 309 312 312 312 312 312 312 308 307 309 309 308 309 309 308 308 309 310 311 312 311 311 311 309 310 312 313 318 324 324 322 321 321 320 318 323 328 329 326 325 328 325 318 318 319 319 319 317 317 317 317 320 321 320 318 318 319 318 325 331 326 322 327 334 334 328 326 329 327 325 324 323 322 323 322 321 319 317 316 315 314 314
312 315 313 310 309 308 310 312 312 311 311 311 311 307 307 308 308 309 309 309 309 309 310 311 311 312 311 310 309 309 311 313 314 321 323 321 320 321 320 322 323 325 330 331 329 329 332 326 316 321 330 328 319 317 320 320 322 328 329 327 325 322 320 323 331 339 333 324 328 335 333 327 327 327 325 322 321 320 320 320 319 318 317 315 314 313 312 311
312 314 314 313 310 309 312 314 314 314 314 313 310 309 309 309 309 310 309 310 310 310 311 311 310 311 311 310 310 310 312 313 313 318 322 322 321 320 321 323 325 328 330 331 331 330 327 326 327 326 324 324 321 318 322 325 325 328 330 329 327 326 329 328 328 337 335 324 327 336 333 328 328 325 322 320 319 318 318 317 316 314 313 313 312 311 310 310
311 313 314 315 312 310 315 317 316 317 319 316 315 317 315 312 312 311 310 312 310 310 312 312 310 312 312 312 313 311 311 313 313 315 320 323 322 319 321 324 325 329 331 330 331 332 327 329 336 333 324 325 326 322 325 329 328 328 329 329 328 330 335 329 327 338 337 326 331 338 332 328 326 322 320 319 317 316 316 314 313 312 311 310 310 309 309 309
312 314 313 316 315 313 317 319 315 317 320 317 318 321 317 314 314 310 311 313 310 310 312 311 310 313 314 316 317 314 312 313 315 318 320 324 323 320 322 325 327 329 332 332 333 336 334 329 332 336 334 333 329 325 326 329 330 331 329 329 330 330 333 334 336 339 335 330 333 332 329 329 326 322 319 317 315 314 313 312 311 310 309 308 308 308 307 307
312 314 314 315 316 315 317 318 316 317 319 317 317 319 316 316 316 313 313 313 310 310 312 313 312 312 313 316 318 316 314 316 320 321 320 322 323 323 322 323 326 328 329 330 330 337 342 334 329 331 329 326 325 324 325 326 327 329 327 328 329 329 334 341 339 330 328 333 332 328 329 330 324 320 318 314 312 311 309 309 309 308 307 307 306 306 306 306
311 314 316 316 316 316 316 317 317 317 317 317 318 318 317 319 318 314 314 314 312 313 314 315 314 310 312 314 316 316 314 316 322 323 322 322 324 327 327 323 322 324 327 329 327 332 339 333 328 329 326 323 323 322 322 322 321 322 324 325 326 326 331 336 333 325 327 333 332 328 328 325 319 316 314 312 310 308 307 307 307 306 306 305 305 305 305 305
311 313 316 315 315 316 316 315 316 316 316 317 318 318 317 318 318 315 314 316 318 317 315 315 313 311 312 313 317 319 314 316 322 322 322 324 323 327 329 324 323 323 325 330 327 328 333 329 325 329 327 323 322 320 319 321 321 320 321 321 322 323 324 325 326 324 325 329 329 325 321 317 314 313 311 310 309 307 306 306 305 305 305 304 304 304 304 305
312 313 314 314 314 316 316 315 315 317 318 316 317 319 317 316 318 317 315 316 318 317 315 315 314 312 313 313 317 318 315 318 322 320 323 325 323 326 326 322 324 324 325 329 327 326 329 326 322 328 329 323 322 320 318 319 320 320 319 319 321 324 323 322 323 322 323 324 321 318 316 313 311 309 307 307 307 306 306 305 304 304 304 303 303 303 303 304
310 311 312 313 315 316 317 317 317 316 316 316 318 318 316 315 318 317 315 314 315 314 314 316 316 316 316 316 317 316 314 316 316 314 319 323 321 325 325 322 325 326 325 327 327 329 330 324 323 330 330 324 322 320 318 319 320 320 319 318 319 323 323 320 319 319 321 321 319 318 316 313 309 307 306 306 306 305 305 304 303 303 303 302 302 302 302 302
309 310 310 312 314 316 316 316 316 317 319 322 322 316 314 317 318 316 315 313 312 312 312 315 319 321 318 317 316 315 313 314 312 311 313 314 315 320 325 327 328 327 326 327 328 329 328 325 326 331 328 324 324 323 321 325 328 325 319 316 317 319 319 318 316 315 316 319 320 319 315 311 308 306 306 305 305 305 304 304 303 303 302 302 301 301 302 301
Wind_Speed
10 10 10 10 10 10 10 10 10 10 10 10 11 11 11 11 12 12 11 11 11 12 12 11 10 11 12 13 15 16 19 20 21 16 12 21 20 12 11 10 5 7 13 10 6 5 4 5 6 6 2 1 2 2 3 5 2 2 2 4 5 4 4 4 3 4 2 3 5 3 4 5 3 6 3 6 9 10 9 8 7 9 10 10 13 23 28 27
11 10 11 11 10 10 10 11 11 11 10 11 11 11 12 12 12 12 12 12 11 12 11 11 10 11 11 12 14 15 19 21 19 17 23 28 22 15 13 11 7 6 12 12 10 10 7 5 6 5 2 0 2 2 3 3 3 4 3 4 5 5 3 2 2 6 4 2 3 3 3 5 3 5 2 5 4 9 11 8 8 11 11 13 17 22 22 23
11 11 11 11 11 11 11 11 11 11 11 11 11 12 12 12 13 12 13 13 12 12 12 12 11 10 11 12 13 15 17 16 10 14 24 23 23 24 17 13 11 8 9 9 10 14 10 6 8 6 3 2 2 1 2 2 2 4 4 4 6 5 4 5 4 6 7 4 0 3 2 6 5 5 3 5 4 6 8 6 8 9 9 11 12 16 19 21
11 11 11 12 12 12 12 12 12 12 12 11 12 12 13 13 13 13 13 13 13 12 12 12 11 11 11 11 12 13 12 8 4 9 13 13 17 22 23 19 15 11 9 7 9 14 10 3 5 4 3 2 3 1 3 3 2 2 5 5 5 4 5 8 5 6 9 3 2 2 4 5 7 4 3 6 5 3 4 7 11 14 14 14 13 13 17 17
12 12 12 12 12 12 12 12 13 13 12 12 12 13 13 13 14 14 14 14 13 13 13 12 12 11 10 12 11 9 6 2 4 6 6 6 9 18 24 21 15 12 11 10 10 11 8 2 2 2 2 3 2 1 4 6 3 3 5 6 7 5 5 9 6 6 7 1 2 3 5 2 5 4 1 6 5 3 5 7 13 18 18 18 16 14 14 14
12 13 12 13 13 13 12 13 13 13 13 13 13 13 13 14 14 14 14 14 14 13 13 12 12 11 10 11 7 3 2 1 7 6 5 2 4 13 21 19 14 13 13 13 9 8 6 2 2 2 3 4 4 5 6 5 4 4 6 5 8 8 7 9 4 4 5 3 3 1 1 1 4 5 3 5 4 6 5 8 13 16 16 18 16 14 14 14
12 13 13 13 13 13 13 13 13 13 14 13 13 13 14 14 14 14 14 14 14 14 13 12 12 11 10 8 4 3 3 7 13 6 5 2 7 11 16 17 14 15 16 14 9 7 5 4 4 4 4 5 5 7 7 5 5 7 7 6 8 8 9 10 4 5 6 7 5 3 2 1 2 3 5 4 2 4 9 10 13 14 14 16 14 13 13 13
13 13 13 13 13 14 14 14 14 14 14 14 14 14 14 15 15 14 14 14 14 13 13 12 11 10 9 6 4 2 0 12 19 12 9 5 9 12 15 16 16 17 18 17 13 8 5 4 6 4 4 6 5 6 5 3 4 8 10 8 7 7 9 10 6 7 6 5 6 5 4 5 5 3 3 4 1 8 11 11 13 14 13 13 12 12 11 11
13 13 13 14 14 14 14 14 14 14 15 15 15 14 14 15 15 15 14 14 13 13 12 11 11 8 7 6 5 2 6 15 17 11 12 12 11 13 16 16 17 18 17 17 15 9 5 5 6 5 5 6 5 5 2 0 4 6 8 8 7 7 8 8 6 6 7 4 4 6 5 7 5 2 3 5 6 9 11 11 11 14 13 11 11 11 10 11
13 14 14 14 14 15 15 15 15 15 15 15 16 15 15 15 15 15 14 14 13 13 12 9 9 5 6 5 4 0 7 11 10 8 13 15 13 15 17 15 18 20 16 13 14 12 8 6 5 4 4 4 4 4 3 4 4 5 6 7 9 9 8 6 5 6 6 4 5 7 6 6 3 2 4 6 7 10 12 12 10 12 12 11 10 10 10 11
14 14 14 15 14 15 15 15 15 16 16 16 16 16 16 16 15 15 14 14 13 12 11 8 7 4 6 5 4 4 6 4 5 10 14 16 16 16 18 17 19 22 17 11 15 17 13 10 5 2 3 3 3 4 5 4 3 6 7 7 8 7 6 5 6 6 3 2 5 7 3 5 1 4 7 6 8 13 14 12 11 11 10 10 10 10 9 10
14 14 15 15 15 15 16 16 16 16 17 17 17 17 17 16 15 15 15 14 13 12 9 7 3 5 6 4 4 13 8 1 3 8 13 16 15 15 16 18 19 22 20 12 14 21 18 14 7 3 4 2 2 3 4 4 3 7 6 5 7 5 5 6 6 4 2 2 5 6 3 5 3 5 9 6 10 13 14 12 10 10 8 8 9 9 8 9
15 15 15 15 16 16 16 16 16 17 18 18 18 18 17 16 16 15 14 13 13 11 7 4 1 5 5 1 10 20 15 7 6 8 14 17 13 10 12 16 17 20 21 17 17 20 16 13 9 6 4 1 2 3 3 4 3 5 4 3 3 6 5 6 3 2 2 3 6 6 2 6 6 8 10 5 11 12 11 11 10 8 7 7 7 8 7 8
15 15 15 16 16 16 16 17 17 17 18 19 19 19 18 17 16 14 12 12 11 9 4 0 4 6 4 4 15 19 17 17 17 16 17 19 15 7 9 15 15 17 20 19 18 15 13 14 10 5 2 2 2 4 5 5 2 3 3 1 1 2 5 4 2 3 2 2 7 7 3 8 7 9 11 4 11 14 12 11 9 8 7 7 6 7 8 7
15 15 15 16 16 16 17 17 18 18 18 20 20 20 19 17 15 12 10 9 8 5 3 3 6 6 3 8 16 15 13 12 17 20 17 20 18 7 9 16 16 17 18 18 17 14 15 13 5 3 2 2 1 3 4 4 3 1 0 3 2 2 5 6 3 6 5 3 5 7 4 7 7 9 10 4 12 15 13 11 9 9 8 8 7 7 7 6
14 15 16 16 17 17 17 17 18 18 19 20 21 21 19 16 13 9 8 7 5 3 3 3 5 5 2 6 10 13 11 8 12 16 16 22 20 10 11 15 14 17 18 18 18 17 14 6 2 3 0 1 2 3 3 4 5 2 2 3 2 3 3 5 5 6 8 3 2 8 5 4 5 8 9 3 11 14 13 11 10 9 9 8 7 5 6 6
14 15 16 17 17 17 18 18 18 18 19 20 22 22 18 12 8 7 6 4 2 3 5 6 6 5 2 7 9 9 8 9 9 11 19 24 20 14 12 8 8 13 13 13 13 11 7 1 2 2 2 1 2 5 3 2 4 4 2 1 2 3 2 3 6 4 7 7 6 9 7 6 7 6 7 4 8 14 13 13 12 10 8 6 6 6 6 7
15 16 17 17 17 18 18 17 18 18 19 21 23 22 15 6 6 5 1 4 5 4 3 4 5 4 4 8 6 5 4 9 10 12 21 24 19 17 13 6 5 6 5 5 6 3 1 2 1 1 2 1 3 5 3 4 5 2 1 0 3 3 3 4 6 5 6 9 9 9 9 10 10 6 7 7 8 16 14 13 11 9 8 6 7 7 7 8
15 16 17 18 18 17 18 17 17 18 18 21 22 15 5 2 3 1 3 6 5 3 1 2 5 2 3 6 7 6 6 9 11 10 19 22 17 16 13 8 5 5 4 2 3 2 1 2 2 2 3 3 4 5 6 7 4 3 3 2 3 4 5 6 8 7 7 10 9 10 10 10 7 7 8 7 4 12 11 11 9 7 8 8 8 7 6 7
16 17 17 18 18 18 18 17 17 17 17 19 20 9 2 3 2 2 1 4 5 4 2 4 9 5 5 3 2 5 6 8 10 9 16 19 15 10 7 5 4 4 3 4 2 2 3 2 2 5 6 6 6 6 7 7 5 4 4 3 4 4 5 6 9 10 7 10 8 10 10 8 5 6 8 4 6 8 8 11 10 8 8 8 7 7 7 6
16 17 18 18 18 18 17 18 17 17 16 16 15 6 1 1 1 1 2 5 8 10 9 7 11 11 12 10 10 9 5 4 8 9 16 18 11 7 4 4 5 3 3 5 3 1 4 4 7 7 8 8 7 7 6 5 5 5 4 5 6 5 5 7 9 8 5 7 4 7 7 7 7 6 7 1 7 7 9 11 10 9 8 7 8 8 7 5
17 17 18 18 18 18 18 19 18 17 18 16 9 3 5 4 2 3 4 5 7 11 13 11 11 15 19 20 23 14 4 5 8 7 14 15 8 5 5 4 6 5 4 4 2 1 2 5 9 9 8 7 6 6 5 5 4 4 3 4 6 4 4 7 7 5 3 4 3 6 6 6 8 5 5 3 5 5 9 12 11 11 10 8 9 9 7 6
17 17 18 17 18 19 19 20 19 18 16 13 8 7 6 6 5 11 8 3 5 8 10 10 10 12 15 17 18 11 5 5 7 7 13 13 6 6 6 5 7 5 4 5 5 4 3 6 11 10 7 6 7 7 5 4 4 3 3 3 6 4 1 4 6 8 7 1 4 6 5 4 6 6 6 2 4 3 7 13 12 12 13 13 13 10 9 9
16 17 17 17 18 19 19 21 18 11 10 11 13 11 9 12 12 14 7 1 4 5 9 13 10 7 14 14 9 7 5 5 6 7 13 13 4 4 6 5 6 5 5 7 7 6 7 9 8 7 7 8 7 7 5 4 4 5 5 5 6 6 4 5 3 7 8 5 2 5 3 4 5 5 7 5 2 3 1 8 9 9 10 11 11 9 10 10
16 17 17 17 18 19 21 19 10 7 11 12 13 12 19 17 11 8 3 1 4 4 7 11 8 8 17 14 7 6 4 5 6 7 13 14 7 5 4 3 4 5 7 8 7 6 10 8 4 5 7 8 7 7 7 7 4 5 5 9 10 8 7 5 2 5 6 6 2 4 4 5 6 4 7 6 6 8 6 3 6 8 6 4 5 7 6 2
17 17 17 17 17 20 19 9 6 12 13 8 6 15 19 14 6 3 2 2 3 3 3 7 7 9 13 8 6 5 3 5 6 10 15 15 12 8 4 2 2 6 7 5 4 4 6 5 6 8 9 8 8 8 7 8 5 4 6 10 9 4 4 4 3 5 2 3 3 3 5 3 6 5 7 4 9 10 9 7 1 5 6 5 5 3 2 5
16 16 17 17 16 18 12 6 11 15 7 4 11 16 15 13 8 2 2 3 3 3 4 4 4 8 10 9 9 7 4 5 3 9 14 15 13 7 5 5 2 5 6 3 3 4 5 6 7 9 9 8 7 7 7 9 7 4 6 7 5 1 4 4 3 4 2 3 4 4 5 2 3 5 5 6 11 11 10 9 9 7 4 2 1 4 7 6
16 16 16 16 16 15 11 12 15 9 6 11 18 16 14 14 7 2 3 1 2 2 4 2 3 7 7 7 10 6 5 5 4 6 13 18 14 5 4 7 5 7 6 5 5 5 4 7 9 10 8 6 6 8 9 10 7 6 7 7 4 2 4 3 1 3 1 1 3 6 2 3 3 6 6 7 10 9 9 9 11 12 11 9 8 10 10 8
16 16 16 17 17 14 9 10 11 8 10 18 20 15 14 10 4 2 2 1 2 1 2 2 3 5 3 5 9 7 5 4 3 5 10 14 12 5 3 7 7 7 5 5 6 6 4 8 9 9 7 6 9 11 9 10 7 7 6 5 1 0 1 2 1 4 3 4 1 7 1 3 2 6 7 5 6 5 6 7 9 11 11 11 11 11 10 9
16 16 16 16 17 13 9 10 14 9 11 19 20 15 10 6 2 3 2 2 3 1 2 1 2 5 5 6 7 7 7 4 2 4 7 8 9 4 2 4 5 3 1 1 5 7 6 5 4 5 6 8 10 9 9 11 8 4 4 3 2 4 4 4 2 4 4 1 4 7 2 6 1 4 6 4 3 1 2 5 8 11 12 11 10 11 11 10
16 17 16 16 16 12 10 10 10 5 9 18 18 10 5 3 2 3 2 2 2 0 2 2 2 5 8 8 7 7 9 5 2 5 6 5 6 4 2 2 3 1 2 3 4 6 6 4 3 4 5 6 7 5 6 8 7 6 4 2 0 4 4 4 4 4 3 2 6 7 3 7 4 1 5 4 4 4 5 6 8 11 12 10 9 10 9 8
18 19 18 17 16 13 11 9 5 5 11 19 14 5 4 2 0 2 2 3 1 2 3 4 4 6 9 9 7 7 8 5 2 5 6 6 5 5 4 4 4 2 1 2 3 5 5 4 5 5 5 4 6 3 1 2 5 6 5 5 3 1 2 2 3 1 1 4 6 5 2 5 3 1 4 4 7 9 8 7 7 8 8 8 8 8 6 5
20 22 22 20 18 19 21 16 11 12 15 17 9 2 4 2 2 3 3 2 1 1 1 4 6 7 9 8 5 6 6 4 3 4 6 7 6 5 5 5 5 5 2 4 3 2 4 6 4 3 5 2 6 5 2 1 3 4 4 5 4 2 2 1 3 1 1 4 6 3 3 2 2 2 5 5 9 9 9 8 7 8 8 7 7 7 6 5
23 24 24 20 18 21 22 18 15 13 13 11 4 4 3 2 3 3 2 2 1 2 2 3 6 7 9 7 5 7 5 4 5 6 6 6 6 5 5 5 4 5 3 3 2 3 3 5 4 4 4 2 4 6 7 5 4 4 5 5 5 4 4 3 2 2 2 3 4 2 2 2 3 3 1 4 7 7 8 8 7 9 9 8 8 9 8 6
25 23 20 17 17 17 15 14 12 7 6 5 4 3 2 3 2 1 2 2 2 3 4 5 7 7 7 5 5 7 6 4 6 6 6 7 6 6 5 5 6 5 4 3 3 2 4 5 7 6 5 4 5 5 6 7 3 3 3 6 3 5 5 3 3 5 4 1 3 1 1 0 4 6 3 5 7 7 8 7 10 11 8 8 9 9 8 7
25 21 15 14 15 11 7 10 11 7 2 2 4 1 3 3 2 2 2 4 3 4 4 5 7 5 4 4 4 6 6 4 4 5 4 7 7 7 6 5 7 7 6 4 3 2 3 5 7 3 3 5 7 6 5 6 4 1 2 3 3 5 7 4 2 1 3 2 3 0 3 0 2 4 4 7 8 8 8 8 11 11 9 9 8 7 8 8
22 16 10 12 11 4 5 11 15 12 3 3 3 3 3 3 4 3 3 5 5 5 2 2 4 3 3 4 3 6 8 4 4 4 3 5 5 6 8 6 7 10 9 6 3 2 4 3 6 2 5 7 6 7 4 4 6 4 2 4 2 3 5 3 1 1 3 2 4 0 4 3 3 1 2 7 10 8 8 9 9 9 9 10 9 8 9 9
18 12 10 10 8 4 7 18 20 11 3 3 1 3 3 3 3 4 5 4 5 3 4 4 2 2 2 3 3 6 8 6 6 5 4 4 2 2 4 4 6 10 11 10 3 2 3 2 7 4 5 5 4 6 2 2 2 5 5 4 3 3 0 1 2 2 2 3 3 2 2 1 3 2 1 5 8 8 9 10 10 10 10 9 9 10 11 11
12 6 6 3 7 9 15 23 17 5 2 2 2 2 3 4 5 8 7 3 2 2 4 3 1 2 2 2 2 3 4 7 8 5 3 4 1 1 1 1 4 8 8 11 7 2 3 2 4 5 2 1 3 3 3 3 3 2 2 2 2 4 3 2 3 4 4 4 3 2 2 1 2 3 1 4 6 8 9 9 10 10 10 9 9 8 9 9
5 3 2 6 14 17 23 20 8 2 2 2 3 2 4 5 5 8 6 1 0 1 2 1 2 2 2 2 2 2 1 3 6 5 3 3 3 0 2 2 1 3 3 8 6 1 2 2 2 5 6 3 1 1 6 7 3 1 1 1 1 1 2 2 2 3 5 4 3 3 1 3 4 2 2 4 5 7 9 9 9 9 10 9 7 6 7 7
3 1 1 10 21 25 21 10 2 1 2 2 2 2 5 5 6 8 5 1 1 1 2 2 1 2 2 2 3 3 3 3 2 2 2 2 3 1 2 1 1 2 2 4 3 1 2 3 3 3 4 1 3 2 4 7 7 6 4 3 4 3 3 3 2 2 2 4 4 5 3 4 4 1 3 4 5 7 8 9 9 9 10 8 6 6 7 8
2 1 2 11 24 25 13 2 1 2 1 2 2 5 6 5 6 7 5 2 1 1 2 2 1 1 2 2 3 4 4 3 3 2 3 3 4 1 3 0 4 4 4 3 0 2 3 3 3 3 3 4 3 6 9 3 5 7 3 0 1 2 3 5 4 4 1 3 2 4 3 3 3 2 5 6 6 7 7 8 8 9 9 7 6 7 8 8
1 1 2 7 20 16 6 2 2 1 2 3 4 7 7 5 6 5 4 5 3 2 2 2 2 2 3 2 2 4 4 3 3 3 4 4 5 4 5 3 7 5 4 3 2 0 2 3 2 3 4 3 1 8 13 11 8 6 3 2 2 0 2 5 5 3 3 2 1 4 3 2 2 4 6 7 8 7 6 6 8 7 7 7 7 8 8 8
1 2 2 3 13 10 3 2 2 2 3 4 4 6 6 6 6 3 3 4 4 3 3 3 2 2 3 3 3 4 4 3 3 4 4 4 2 5 7 7 9 5 3 2 2 1 1 1 2 1 2 4 3 2 6 8 6 3 3 4 4 2 3 3 1 3 3 1 3 5 2 3 2 6 7 8 9 9 8 8 7 7 6 5 5 6 6 6
2 1 2 3 6 5 2 2 2 1 3 3 4 5 5 4 3 1 3 2 3 3 2 3 2 2 3 5 4 5 6 4 2 3 4 4 2 3 7 8 8 5 3 2 1 2 2 2 3 4 4 3 3 3 1 2 3 3 3 6 6 5 5 3 2 4 3 2 3 5 3 3 6 8 8 9 9 9 9 9 8 7 6 5 5 6 5 5
1 1 1 3 1 2 1 2 1 1 3 2 3 4 2 2 3 2 3 2 3 4 2 2 2 2 4 6 5 4 6 6 4 3 4 3 2 2 5 6 6 5 5 8 7 3 4 3 2 5 5 5 4 3 3 3 4 3 3 7 7 6 5 5 4 2 3 3 3 3 7 9 8 8 8 8 8 8 8 8 8 8 7 7 6 6 5 5
0 0 1 1 0 1 2 3 1 3 3 1 2 3 2 2 3 3 3 2 2 3 3 2 3 3 2 3 3 2 4 5 5 4 3 3 1 2 4 4 6 5 6 7 8 3 5 4 4 4 5 5 6 5 4 6 7 4 3 7 7 7 7 7 4 0 4 5 2 4 10 10 8 7 8 7 7 8 7 7 8 7 7 7 7 7 8 8
1 1 2 1 1 2 3 3 3 5 4 3 2 3 3 3 3 2 3 2 3 4 3 3 6 6 4 3 3 1 3 4 5 3 2 2 2 3 5 4 5 6 6 4 5 3 6 2 4 3 6 7 8 9 9 10 8 7 7 7 7 8 9 7 2 3 2 3 4 8 11 9 7 8 8 7 7 8 7 7 7 6 7 7 7 7 9 10
1 1 3 1 1 2 3 2 3 4 5 4 3 3 1 3 3 2 2 3 4 4 3 2 5 8 8 6 5 3 3 2 2 2 1 2 3 2 3 3 4 4 5 4 4 3 4 2 3 3 7 8 7 7 9 10 9 9 9 8 6 8 9 7 4 5 5 4 7 12 13 9 7 7 8 8 7 7 6 6 6 6 7 6 6 8 10 10
1 1 2 2 3 2 2 2 2 3 4 2 2 3 1 2 1 2 2 4 2 4 3 4 3 5 8 8 7 5 3 3 4 1 2 3 3 1 1 0 2 3 4 4 2 3 3 1 3 3 6 6 6 7 8 10 11 10 10 9 8 7 8 7 5 4 6 7 10 13 12 8 5 6 9 8 7 7 7 6 6 6 6 6 7 8 9 9
3 4 3 1 3 2 2 2 2 3 2 1 2 3 1 0 2 1 2 1 3 2 2 4 3 5 7 8 8 6 4 3 3 2 4 5 2 2 2 2 2 2 3 3 1 3 3 2 1 4 5 2 3 4 4 8 12 11 10 10 10 7 6 6 5 4 3 7 10 10 7 5 4 6 9 9 8 9 8 6 5 5 6 7 7 8 8 7
4 5 4 1 2 3 2 2 0 3 3 3 3 2 1 4 3 4 3 4 3 5 3 5 5 4 6 7 6 3 2 2 1 3 2 3 2 2 2 2 4 4 1 2 2 2 3 4 2 3 4 1 1 0 2 2 6 6 4 6 7 4 5 5 6 7 5 3 6 5 4 6 7 7 9 9 8 8 6 5 5 5 6 7 6 7 7 6
Wind_Direction
317 318 318 318 317 318 319 319 320 320 323 323 322 322 320 321 321 321 321 319 320 320 318 321 330 335 333 332 334 336 332 322 314 306 255 251 256 244 237 216 186 207 207 209 217 198 159 174 201 197 195 347 199 235 222 198 182 128 162 213 234 227 227 206 204 300 319 296 304 349 41 77 14 317 346 51 63 80 66 47 55 38 46 76 98 129 143 150
314 315 316 317 316 317 317 318 319 319 321 321 322 322 320 322 321 321 320 319 321 319 318 322 328 334 333 334 338 341 333 321 311 289 257 255 258 247 232 209 186 186 191 199 212 195 169 182 193 170 125 136 227 219 222 214 163 163 184 211 227 215 225 220 229 302 304 221 294 335 41 50 360 285 358 64 80 91 83 59 68 74 69 77 99 124 140 147
314 314 313 314 315 315 316 316 317 317 319 321 321 321 321 321 320 320 319 319 321 321 323 323 327 331 333 337 344 344 330 321 309 271 266 262 252 244 231 204 197 204 199 204 213 201 194 189 179 156 124 224 258 219 234 248 199 191 190 219 241 225 265 278 242 276 268 209 113 317 37 37 324 287 64 96 101 96 115 119 99 105 116 113 122 135 143 148
315 314 312 312 313 313 314 314 315 316 317 319 320 321 321 320 320 319 317 319 320 323 324 325 330 327 331 344 345 341 332 322 280 264 277 268 244 233 222 211 207 217 219 227 227 205 206 202 171 167 147 223 263 215 233 240 235 214 191 210 233 221 261 269 245 256 260 222 155 291 32 24 312 310 110 125 96 74 171 166 145 146 148 143 148 150 149 151
311 312 312 311 312 312 312 313 313 314 316 317 319 320 320 319 319 318 318 319 321 324 324 326 329 325 333 344 341 339 353 348 283 297 308 276 235 214 207 206 206 214 215 220 223 200 212 262 122 183 188 232 250 193 242 232 217 253 236 223 228 223 253 266 256 243 251 12 46 5 29 3 309 325 127 117 117 205 206 178 156 153 156 154 157 158 154 155
308 309 310 309 310 311 311 312 313 313 314 315 316 318 318 318 316 317 317 317 321 322 323 328 328 329 336 342 348 10 79 276 300 329 344 347 185 193 193 196 200 208 209 206 199 185 205 196 136 195 199 229 215 204 245 234 191 239 266 244 233 225 234 260 270 230 219 107 86 16 333 315 16 323 298 91 158 212 173 155 151 151 156 153 154 158 161 162
310 310 309 308 308 309 310 312 312 312 313 313 315 316 316 315 314 316 314 315 319 320 324 328 328 334 342 360 36 74 97 266 275 282 314 8 135 166 181 191 198 201 200 191 179 174 172 153 183 198 196 226 212 213 239 237 204 221 247 245 237 226 227 251 252 220 201 153 178 177 141 152 69 294 301 347 254 163 130 140 143 147 151 150 155 161 164 159
310 310 309 309 308 309 310 310 310 311 311 312 313 314 314 313 312 312 311 312 316 319 323 326 331 341 353 29 73 30 112 252 260 254 261 231 155 164 177 189 198 196 191 188 185 172 152 171 207 196 200 226 213 218 225 251 248 222 230 238 237 227 227 241 230 217 220 189 188 156 149 210 203 191 282 290 197 122 129 140 140 144 150 154 160 162 160 146
310 310 309 309 309 309 309 309 311 310 309 311 310 312 313 311 311 309 308 310 313 315 318 325 331 348 18 48 75 8 256 251 263 256 235 209 181 184 187 191 193 189 186 191 187 171 171 193 205 194 205 230 230 238 206 202 264 225 223 238 240 240 239 243 233 216 226 228 172 150 186 235 229 166 273 243 165 132 129 137 141 143 152 160 162 162 154 141
311 310 310 309 309 309 310 311 311 311 310 309 309 310 310 310 310 308 309 309 310 310 314 327 329 356 55 66 93 169 266 262 262 235 213 204 198 197 199 198 190 185 183 186 186 187 201 206 211 209 213 242 245 246 220 202 250 259 253 257 247 244 251 242 238 227 214 228 188 163 198 242 249 146 262 257 162 138 128 140 151 148 158 165 163 161 153 146
312 310 310 309 309 308 311 311 311 312 310 309 309 309 308 308 307 306 308 306 307 307 311 324 331 40 78 75 112 215 262 285 239 199 197 205 207 208 209 206 194 187 181 179 197 204 210 227 256 282 235 259 270 268 250 227 305 295 273 277 267 261 271 244 231 237 201 229 191 146 169 252 240 162 234 241 151 145 142 151 160 157 166 168 165 159 155 152
310 310 308 309 309 308 310 311 311 311 310 309 308 307 307 305 304 303 303 305 307 303 308 323 343 89 82 72 198 232 233 166 200 194 203 212 217 226 221 211 202 195 188 179 207 214 216 234 252 259 246 265 306 287 264 268 320 287 260 261 283 327 312 255 235 223 158 226 185 115 17 278 234 213 236 212 151 152 148 155 164 164 165 166 172 163 162 158
307 309 308 308 308 307 309 310 311 310 309 310 308 307 306 302 298 298 302 306 305 299 303 325 60 98 79 98 237 246 247 247 262 266 248 234 231 239 225 214 210 206 199 189 204 217 223 241 238 226 240 234 269 270 283 298 300 279 273 225 286 350 316 252 227 202 187 213 160 116 322 267 247 240 246 206 148 150 152 163 170 168 163 166 184 173 167 161
307 308 307 307 307 307 308 308 310 310 309 310 309 307 304 299 295 297 303 301 301 297 287 37 113 108 96 257 263 266 271 274 271 269 255 236 231 231 211 209 212 213 206 201 210 221 238 256 243 215 219 197 235 294 319 333 327 291 314 317 344 331 282 276 218 188 227 220 142 133 233 256 262 254 255 219 147 155 162 173 173 168 166 167 188 182 172 170
309 308 306 307 307 307 308 308 310 310 310 310 309 307 302 298 298 300 297 293 303 288 231 136 130 113 54 279 278 287 287 275 255 248 239 224 219 211 203 206 214 218 210 210 219 234 254 261 239 169 242 254 64 7 339 345 330 322 307 303 328 199 266 314 277 198 205 262 142 150 219 265 265 255 254 205 152 162 164 175 176 169 172 173 191 190 173 174
310 309 308 307 306 307 307 309 310 311 311 310 308 304 298 300 302 289 273 280 299 246 177 117 139 125 39 277 288 297 276 244 234 231 220 216 212 199 202 207 216 217 211 217 226 242 256 260 193 169 160 347 90 76 20 352 326 344 149 233 243 183 275 322 292 216 190 214 187 186 213 276 265 253 260 201 150 162 162 173 177 173 180 178 189 196 173 170
310 310 309 307 306 307 308 309 311 312 312 311 309 304 301 303 283 257 265 269 245 179 133 97 113 122 265 275 298 294 245 217 224 209 201 211 211 203 202 196 205 209 211 225 235 244 251 256 201 215 51 74 149 104 62 305 275 308 4 258 252 205 232 284 301 278 180 180 212 215 221 241 257 266 283 286 159 161 164 175 179 176 181 177 187 196 181 173
310 310 308 307 307 307 308 311 312 313 314 312 309 307 306 292 233 237 222 146 138 123 99 79 99 106 263 264 267 271 225 205 211 193 192 202 207 209 206 190 183 187 198 232 252 250 238 353 100 135 349 230 171 120 144 226 213 235 300 332 289 268 250 257 281 286 172 180 203 211 225 238 263 297 303 289 184 169 171 172 174 171 173 185 195 194 185 180
310 309 308 307 306 307 308 311 313 314 316 314 314 314 304 153 159 147 132 151 138 118 123 177 162 139 278 236 223 266 274 211 199 187 189 196 202 209 208 199 176 142 142 192 275 288 147 5 60 148 237 221 204 157 177 221 204 215 237 201 254 271 273 253 259 261 181 175 192 196 217 231 261 299 300 312 140 157 161 156 164 172 178 192 198 197 182 179
309 307 307 306 305 308 309 311 313 313 316 319 327 337 136 126 88 94 168 213 222 225 253 185 189 244 301 272 260 306 292 218 200 196 198 199 192 191 203 196 149 122 140 153 225 283 135 157 231 205 211 211 219 192 196 237 245 269 296 303 284 277 276 260 270 273 186 165 193 196 209 231 252 270 273 313 92 131 152 160 175 178 184 192 192 199 188 182
308 306 305 305 307 308 309 311 309 310 312 315 324 331 222 221 121 123 246 234 231 230 251 226 198 238 264 269 288 316 339 242 217 202 205 205 179 159 203 178 142 169 190 156 170 335 119 186 232 220 210 206 216 213 214 252 269 272 278 293 292 280 276 276 277 275 168 141 205 203 200 247 259 252 255 232 112 145 168 173 184 179 186 193 188 199 193 179
308 307 305 306 308 309 310 308 305 305 304 300 301 276 263 265 220 328 307 254 243 216 232 244 219 241 256 262 272 281 314 251 229 212 201 197 168 165 203 163 155 194 189 144 135 121 151 220 236 225 207 201 225 229 216 241 262 268 274 287 284 268 282 292 299 323 54 107 203 196 183 242 268 266 256 193 145 174 179 179 186 179 182 191 194 200 188 167
307 307 308 308 309 311 309 305 304 303 298 288 254 218 259 288 303 321 318 277 269 208 207 230 220 240 254 262 265 247 244 240 213 212 192 178 166 172 181 168 169 181 169 163 160 158 193 232 231 221 190 185 233 247 232 251 270 262 249 259 271 277 294 281 309 348 4 70 178 170 171 250 297 322 305 248 165 178 183 188 189 180 180 188 193 193 186 181
307 308 310 309 311 312 308 309 308 309 316 292 254 248 300 314 307 313 315 254 280 234 205 210 195 220 237 244 247 194 203 231 203 204 185 173 158 146 175 179 159 167 187 188 173 175 227 237 216 199 186 187 218 246 233 225 264 257 225 220 256 274 242 225 284 348 351 355 81 99 61 315 326 340 311 305 359 12 137 181 191 198 197 194 190 187 191 190
309 310 311 312 314 313 311 313 311 325 329 293 264 302 333 325 306 296 302 353 289 263 215 202 181 222 229 225 225 192 191 228 214 188 177 175 160 142 190 180 138 182 204 195 177 199 243 239 175 176 203 198 204 234 217 185 221 264 237 222 228 234 235 241 6 38 17 346 322 86 64 303 318 334 286 300 353 358 19 114 190 223 235 220 195 196 203 180
309 310 313 314 315 319 321 316 314 324 315 278 290 335 341 340 327 231 200 16 290 251 172 166 167 207 212 192 187 180 176 235 212 171 174 179 172 161 181 193 151 192 198 192 179 214 239 207 171 193 210 203 208 235 215 171 179 245 242 220 207 209 263 291 34 79 77 287 283 81 110 253 315 319 279 325 20 13 23 35 341 239 238 232 216 196 101 59
310 309 313 314 317 329 330 302 315 322 296 289 337 338 341 344 336 190 138 11 275 226 146 155 175 179 182 174 162 146 176 222 175 163 177 179 176 159 162 187 191 196 191 168 193 234 213 185 193 201 205 208 212 236 211 161 157 226 237 209 188 263 285 297 58 100 189 242 320 9 110 138 303 285 300 31 47 27 23 22 6 360 339 290 170 77 74 85
308 311 314 314 318 322 310 293 304 304 279 328 341 341 350 348 333 139 111 18 237 181 139 167 190 166 170 168 160 169 213 184 154 191 183 177 179 151 165 194 189 200 197 160 201 246 201 190 204 194 196 209 211 231 207 154 158 231 222 204 212 228 241 285 75 143 193 101 333 315 75 108 274 290 340 42 62 31 12 15 19 25 26 38 65 73 72 73
308 312 312 315 316 312 305 288 277 273 312 337 345 342 347 351 347 93 94 177 203 192 141 129 152 170 169 140 160 204 230 159 176 200 168 175 187 161 179 202 191 209 210 167 206 254 229 205 203 184 183 199 211 231 208 161 189 226 186 171 218 338 52 9 123 150 68 69 228 272 274 116 276 318 348 24 56 27 354 9 30 38 41 50 60 64 66 63
309 309 310 316 315 314 325 293 269 279 329 338 342 341 346 357 33 86 108 230 235 206 116 128 164 166 159 143 165 208 212 185 172 158 151 180 193 176 201 192 169 193 254 213 232 250 250 239 215 187 189 196 204 215 193 173 184 175 135 132 11 1 24 35 67 103 68 31 241 249 192 113 86 329 342 4 50 92 29 31 38 42 41 44 49 51 59 65
307 305 308 309 305 310 320 292 262 263 329 337 341 350 14 21 59 116 158 260 277 130 120 176 185 158 160 163 170 194 207 209 117 136 159 178 186 198 253 189 149 117 6 333 279 270 276 286 273 227 209 188 178 190 192 175 150 112 95 108 13 336 10 20 359 41 84 251 255 244 153 96 98 310 328 358 58 78 71 57 49 52 48 43 48 53 58 66
305 304 303 296 290 280 262 249 234 263 318 339 346 10 65 65 150 192 236 321 351 186 185 187 189 172 169 172 172 178 196 208 148 149 167 167 182 199 197 191 177 161 281 268 270 305 301 262 251 255 243 178 140 141 243 131 106 99 85 89 107 310 4 351 312 347 187 244 260 255 81 74 107 99 350 27 73 67 70 73 60 63 61 49 51 54 55 57
307 306 300 290 281 264 251 252 265 281 314 338 349 48 78 109 211 222 238 315 355 210 211 180 182 166 159 169 177 171 183 206 178 164 173 167 176 200 216 217 170 140 187 217 222 311 309 292 281 262 270 218 133 127 154 151 112 123 132 123 131 131 99 248 277 333 259 262 275 295 64 92 152 64 2 44 77 71 70 66 48 46 46 44 44 42 44 37
308 305 299 292 278 263 257 260 265 278 314 338 17 88 100 182 235 226 219 267 263 289 299 184 168 155 161 179 185 164 170 221 199 162 157 160 167 197 228 238 190 137 138 184 188 183 217 288 276 209 235 223 147 154 161 155 140 160 158 134 144 151 141 193 205 164 223 267 297 317 98 148 149 119 2 59 74 72 76 69 57 53 42 43 44 39 41 33
311 307 302 292 275 263 255 251 248 255 311 345 69 91 179 207 255 241 233 273 260 269 265 201 170 160 173 191 194 175 170 217 203 161 154 165 174 191 200 221 209 160 128 163 215 192 180 238 252 227 204 163 158 176 145 116 124 210 143 105 145 178 144 149 173 165 176 210 326 347 102 186 131 121 102 84 75 70 80 79 75 71 58 56 49 38 37 30
316 315 307 283 270 263 236 221 208 197 230 58 100 176 222 222 255 237 265 311 309 294 284 205 171 159 180 198 211 203 191 201 184 157 163 167 174 192 193 207 206 180 152 163 215 194 159 245 274 261 207 183 170 174 153 135 158 224 109 138 208 171 134 131 216 150 105 134 276 191 117 81 118 99 47 64 69 60 70 75 75 76 69 64 54 39 35 28
319 316 304 270 259 253 191 179 168 167 171 84 126 218 243 246 254 254 291 319 302 296 340 131 149 125 163 181 216 208 192 197 184 166 171 166 178 203 198 209 207 188 175 170 211 212 161 255 288 256 226 231 182 155 154 150 140 120 166 200 193 105 102 107 154 7 66 162 264 277 134 174 150 142 358 63 72 66 70 75 76 73 66 61 55 46 41 33
315 307 291 263 231 192 165 158 153 154 128 71 147 254 258 260 289 299 300 310 297 307 43 67 80 45 105 143 263 220 180 177 188 175 167 172 211 237 197 214 220 204 186 166 188 254 152 244 288 261 223 219 146 120 130 318 82 127 167 177 128 121 186 78 141 141 120 184 259 24 87 178 151 193 271 86 92 91 82 75 70 62 54 53 48 43 41 39
302 296 297 229 167 162 154 148 144 135 87 111 218 244 264 270 284 285 280 286 305 353 55 56 42 28 64 88 316 262 181 173 184 174 148 161 201 298 224 243 228 225 196 165 174 221 141 136 284 288 299 128 94 93 168 257 326 52 93 57 106 142 164 182 170 156 155 193 217 101 50 301 213 226 189 114 106 103 91 76 70 62 55 53 47 41 36 35
267 285 333 133 143 148 145 140 130 83 116 183 211 237 286 286 279 278 275 259 53 51 88 64 26 35 30 31 358 298 281 150 171 169 127 127 127 155 321 360 243 260 201 162 165 206 143 146 233 290 340 46 122 209 187 188 183 151 140 152 200 175 148 173 175 143 144 167 180 146 150 263 254 255 132 121 100 95 91 82 76 69 65 60 52 49 41 35
243 323 33 143 145 142 137 130 87 120 183 248 223 262 287 295 297 292 290 5 89 165 144 134 75 51 54 27 6 328 339 46 122 144 86 87 107 127 290 308 82 356 54 127 110 71 176 164 189 271 336 27 226 250 192 191 172 154 166 184 191 190 154 152 242 290 115 139 169 154 165 260 271 127 117 107 83 79 81 83 80 70 67 61 44 46 47 41
257 75 77 143 149 142 127 88 266 153 237 254 223 266 286 298 294 289 295 339 35 77 75 82 73 48 65 56 13 350 356 29 34 55 73 67 78 71 284 257 90 67 76 89 35 183 146 118 160 235 264 223 218 57 58 68 102 98 91 71 172 155 130 144 207 257 84 106 134 113 113 263 267 120 106 90 80 77 74 80 84 75 70 60 35 30 37 38
271 310 3 150 162 153 102 38 255 280 266 245 248 265 274 276 273 288 338 351 6 40 28 37 69 60 46 34 13 7 13 34 39 70 94 70 50 357 315 78 92 71 68 58 317 280 87 88 166 253 304 303 333 61 54 45 59 71 37 7 30 87 148 150 176 184 115 105 102 89 91 251 233 106 99 92 86 81 66 66 78 77 70 60 42 29 28 29
340 299 330 174 183 179 100 129 209 268 257 261 270 261 260 260 256 263 21 355 353 27 23 9 22 48 33 23 38 30 26 45 43 52 82 82 49 343 350 61 86 65 62 142 221 231 58 86 115 89 342 329 323 42 38 28 45 62 355 339 341 17 76 102 126 85 82 156 152 120 143 228 145 102 97 92 83 73 56 54 65 68 64 57 50 40 27 25
338 227 285 282 202 183 148 167 173 230 262 286 286 261 258 266 261 127 90 358 354 48 48 344 350 67 48 33 45 35 31 55 42 5 40 68 77 12 7 40 71 74 78 93 119 114 88 88 110 127 168 206 208 191 210 8 46 53 1 344 345 11 47 86 101 70 91 183 119 115 154 158 114 100 93 88 83 72 55 50 51 51 52 45 40 37 22 22
9 156 251 320 306 157 230 251 177 204 248 291 293 273 273 294 310 33 73 21 12 56 68 332 352 54 45 40 47 27 28 54 61 37 37 39 48 14 1 28 58 80 73 39 25 62 92 58 73 122 147 178 177 174 191 144 88 65 1 1 357 354 27 87 101 94 155 141 72 125 151 131 115 106 93 80 73 65 51 45 43 36 33 31 29 27 23 26
332 174 181 163 29 219 264 284 268 204 227 276 288 281 306 320 316 351 21 19 22 36 31 3 22 45 42 52 65 18 22 53 54 53 46 20 2 330 346 34 55 63 74 36 4 42 95 36 3 73 101 123 120 103 98 102 92 87 60 23 9 6 34 72 88 142 142 111 65 161 143 123 113 103 91 80 71 65 52 43 41 32 26 22 16 13 20 26
201 268 242 204 192 203 223 251 234 222 242 262 269 281 323 6 22 12 343 338 11 35 47 1 9 31 41 77 112 56 16 49 37 25 33 15 6 351 353 12 33 46 66 37 357 65 104 42 338 51 72 78 97 99 93 97 90 74 65 42 23 31 48 72 64 348 82 132 163 152 130 113 109 101 89 82 79 75 62 51 47 41 35 25 14 17 23 24
181 279 270 284 277 219 226 260 241 234 243 235 250 294 333 42 29 360 354 20 5 7 71 66 12 31 39 55 102 72 11 64 57 341 51 47 23 31 23 1 354 25 60 53 13 53 98 47 329 55 73 62 77 99 98 98 92 68 54 40 37 49 54 66 56 19 37 87 123 120 107 90 93 98 87 79 80 78 69 59 52 48 46 34 25 31 30 25
120 342 308 341 322 264 252 298 260 240 256 235 247 289 293 102 34 333 33 81 65 337 35 86 62 55 51 50 78 71 30 127 138 103 101 85 27 33 113 273 314 359 37 70 27 8 73 129 298 52 77 44 36 68 84 93 90 71 45 25 27 45 44 41 37 23 40 75 99 103 99 88 81 88 84 78 78 79 70 60 53 50 53 47 42 42 36 27
270 288 311 351 311 286 232 250 199 178 234 248 209 249 298 222 200 147 28 40 126 99 82 127 110 68 57 49 59 60 41 82 110 132 136 138 179 194 164 168 148 50 22 63 61 15 79 138 302 56 86 39 15 55 73 88 84 67 40 16 10 27 48 39 26 18 50 115 115 103 97 108 115 99 87 78 75 76 70 62 58 49 46 47 47 46 41 29
297 304 317 203 267 306 276 269 347 141 193 225 204 211 258 249 225 116 67 338 34 75 104 131 114 75 67 59 46 16 10 44 327 268 179 148 188 187 154 136 121 111 107 106 80 46 105 124 132 92 102 172 217 206 315 38 70 55 17 352 348 20 80 61 32 23 23 99 120 106 108 124 125 110 95 86 77 73 67 60 56 46 42 44 44 47 43 29